Regional Weather Roundup
Issued by NWS

Home | Current Version | Previous Version | Text Only | Print | Product List | Glossary On
Versions: 1 2 3 4 5 6 7 8 9 10 11 12 13 14 15 16 17 18 19 20 21 22 23 24 25 26 27 28 29 30 31 32 33 34 35 36 37 38 39 40 41 42 43 44 45 46 47 48 49 50
000
ASUS43 KMPX 020510
RWRMN
WEATHER ROUNDUP FOR MINNESOTA
NATIONAL WEATHER SERVICE TWIN CITIES/CHANHASSEN MN
1200 AM CDT THU OCT 02 2014


NOTE: "FAIR" INDICATES FEW OR NO CLOUDS BELOW 12,000 FEET WITH NO
SIGNIFICANT WEATHER AND/OR OBSTRUCTIONS TO VISIBILITY. N/A MEANS
CURRENT SKY AND/OR WEATHER CONDITIONS ARE NOT AVAILABLE.

MNZ060>063-068>070-020600-
   Twin Cities Metro

CITY           SKY/WX    TMP DP  RH WIND       PRES   REMARKS
TWIN CITIES    CLOUDY    58  56  93 CALM      29.82F FOG
ST PAUL        CLOUDY    58  57  97 CALM      29.83S FOG
CRYSTAL        CLOUDY    59  56  89 CALM      29.81S FOG
BLAINE         CLOUDY    59  59 100 CALM      29.82S FOG
LAKEVILLE      CLOUDY    55  55 100 CALM      29.82S FOG
EDEN PRAIRIE   CLOUDY    58  57  97 CALM      29.81S FOG
SOUTH ST PAUL  CLOUDY    58  56  95 CALM      29.81F FOG
LAKE ELMO      CLOUDY    57  55  94 CALM      29.83F FOG
$$
MNZ001>005-007-008-013>017-022>024-027-028-020600-
   Northwest Minnesota

CITY           SKY/WX    TMP DP  RH WIND       PRES   REMARKS
BEMIDJI        MOCLDY    56  51  82 SW5       29.76F
HALLOCK        CLOUDY    57  52  82 W6        29.72S
ROSEAU         MOCLDY    57  50  77 W9        29.71S
WARROAD        CLEAR     54  48  82 SW7       29.71R
THIEF RVR FALL CLOUDY    57  50  77 W9        29.75S
CROOKSTON      CLOUDY    57  52  82 W8        29.76S
FOSSTON        CLOUDY    55  50  82 SW7       29.78S
DETROIT LAKES  CLEAR     55  50  82 W5        29.80F
PARK RAPIDS    PTCLDY    51  49  92 SW5       29.79S
MAHNOMEN       CLOUDY    54  49  84 SW5       29.78S
$$
MNZ006-009>011-018-025>026-020600-
   North Central Minnesota

CITY           SKY/WX    TMP DP  RH WIND       PRES   REMARKS
BAUDETTE       CLOUDY    56  52  86 SW7       29.71R
FLAG ISLAND    CLOUDY    55  52  88 SW10      29.67R
INTL FALLS     CLOUDY    55  53  93 SW7       29.73S
WASKISH        CLOUDY    57  54  88 CALM      29.74S
BIG FORK       CLOUDY    55  54  94 S9        29.78S FOG
LONGVILLE      CLOUDY    54  54 100 S6        29.80S FOG
GRAND RAPIDS   CLOUDY   N/A N/A N/A S8        29.80S
CRANE LAKE     CLOUDY    50  48  93 S5        29.78S
ORR            CLOUDY    52  48  87 S6        29.75S
COOK           CLOUDY    52  52 100 SW3       29.79S
WALKER         CLOUDY    55  52  92 SW3       29.78S
$$
MNZ012-019>021-037-020600-
   Northeast Minnesota

CITY           SKY/WX    TMP DP  RH WIND       PRES   REMARKS
DULUTH         DRZL/FOG  52  50  93 SW7       29.84R VSB 1/4
ELY            CLOUDY    50  48  93 S6        29.80S
HIBBING        FOG       52  50  93 VRB3      29.81R VSB 1
EVELETH        CLOUDY    52  52 100 S7        29.83R FOG
DULUTH HARBOR  CLOUDY    54  52  94 W3        29.84S
TWO HARBORS    CLOUDY    52  46  82 SW6       29.82S HAZE
SILVER BAY     FOG       48  48 100 SW3       29.82R VSB 1/2
GRAND MARAIS     N/A     50  49  96 CALM      29.82F
G MARAIS ARPRT DRZL/FOG  46  45  93 S5        29.83S VSB<1/4
$$
MNZ029>031-032-039>041-046>048-054>057-064-020600-
   West Central Minnesota

CITY           SKY/WX    TMP DP  RH WIND       PRES   REMARKS
FERGUS FALLS   PTCLDY    52  46  82 SW5       29.82S
WHEATON        CLEAR     50  46  87 W6        29.84F
MORRIS         CLEAR     50  48  93 W5        29.83R
ALEXANDRIA     CLEAR     50  47  89 W5        29.84R
ELBOW LAKE     FAIR      50  47  92 W3        29.82S
WADENA         CLEAR     48  46  93 SW3       29.81R
GLENWOOD       CLEAR     52  50  93 CALM      29.83F
APPLETON       CLEAR     52  46  82 CALM      29.82F
BENSON         CLEAR     52  48  87 CALM      29.83S
ORTONVILLE     CLEAR     54  46  76 NW5       29.83F
MADISON        PTCLDY    55  50  82 CALM      29.84R
WILLMAR        FOG       55  54  94 CALM      29.84F VSB<1/4
$$
MNZ033>034-036-042>043-049>051-058-059-020600-
   Central Minnesota

CITY           SKY/WX    TMP DP  RH WIND       PRES   REMARKS
ST CLOUD       CLOUDY    59  56  89 CALM      29.83F FOG
SAUK CENTRE    FOG       50  50  99 CALM      29.83S VSB 1/4
PAYNESVILLE    FOG       53  53 100 SE3       29.84S VSB 1/4
AITKIN         CLOUDY    55  52  88 S3        29.81S HAZE
PINE RIVER     CLOUDY    52  52 100 S3        29.84S FOG
BRAINERD       CLOUDY    54  53  97 S7        29.82S FOG
STAPLES        PTCLDY    50  50 100 S6        29.82R FOG
LONG PRAIRIE   FOG       46  46 100 CALM      29.83S VSB 1/4
LITTLE FALLS   CLOUDY    54  52  94 S5        29.82F FOG
LITCHFIELD     CLOUDY    57  57 100 CALM      29.83F FOG
BUFFALO        CLOUDY    57  55  93 CALM      29.84R FOG
MAPLE LAKE     FOG       58  58  98 CALM      29.84S VSB 1/2
$$
MNZ037-044-045-052-053-020600-
   East Central Minnesota

CITY           SKY/WX    TMP DP  RH WIND       PRES   REMARKS
PRINCETON      CLOUDY    57  55  94 W1        29.84S VSB 3/4
MORA           CLOUDY    54  52  94 CALM      29.85S FOG
CAMBRIDGE      HAZE      57  50  77 CALM      29.81F VSB 3/4
RUSH CITY      CLOUDY    54  53  97 CALM      29.83F FOG
MOOSE LAKE     FOG       52  52 100 SW3       29.82S VSB 1
HINCKLEY       FOG       54  54 100 CALM      29.84R VSB 1
CLOQUET        FOG       52  50  93 SW3       29.84R VSB 3/4
MCGREGOR       CLOUDY    54  52  94 S5        29.83F VSB 3/4
$$
MNZ071>073-080-081-089-090-097-098-020600-
   Southwest Minnesota

CITY           SKY/WX    TMP DP  RH WIND       PRES   REMARKS
MONTEVIDEO     CLEAR     55  52  88 CALM      29.84S
GRANITE FALLS  PTCLDY    55  53  92 NW6       29.84F
CANBY          CLEAR     51  49  92 CALM      29.85F
MARSHALL       PTCLDY    54  46  76 NW8       29.83R
REDWOOD FALLS  PTCLDY    55  54  96 CALM      29.82S
OLIVIA         PTCLDY    54  52  94 CALM      29.82S FOG
PIPESTONE      CLEAR     57  50  77 CALM      29.84S
WINDOM         FOG       59  57  94 E3        29.83R VSB 1/4
WORTHINGTON    CLEAR     54  50  87 NW3       29.83S
JACKSON        PTCLDY    54  52  94 CALM      29.83S FOG
TRACY          PTCLDY    57  54  88 NW7       29.84R
SLAYTON        CLEAR     57  51  81 N8        29.85R
$$
MNZ065>067-074>077-082>085-091>093-020600-
   South Central Minnesota

CITY           SKY/WX    TMP DP  RH WIND       PRES   REMARKS
MANKATO        MOCLDY    59  54  82 SE6       29.82S
NEW ULM        FOG       55  55 100 CALM      29.82R VSB 3/4
ST JAMES       PTCLDY    59  57  94 E3        29.82F FOG
FAIRMONT       CLOUDY    57  54  88 CALM      29.82S VSB 1/2
GLENCOE        FOG       55  55  99 CALM      29.82S VSB 1/4
FARIBAULT      CLOUDY    59  57  94 S5        29.82R
OWATONNA       MOCLDY    59  55  88 S3        29.82S FOG
WASECA         MOCLDY    55  52  88 CALM      29.84S FOG
ALBERT LEA     MOCLDY    54  54 100 CALM      29.83F FOG
$$
MNZ078>079-086>088-094>096-020600-
   Southeast Minnesota

CITY           SKY/WX    TMP DP  RH WIND       PRES   REMARKS
ROCHESTER      CLEAR     51  51 100 CALM      29.85S FOG
RED WING       MOCLDY    55  54  94 CALM      29.82F FOG
STANTON        LGT RAIN  60  56  87 NW9G21    29.80F
DODGE CENTER   FOG       55  54  94 SE7       29.82F VSB 1
WINONA         FOG       54  54 100 CALM      29.83S VSB<1/4
AUSTIN         FOG       54  52  94 CALM      29.83S VSB 1
PRESTON        CLEAR     54  53  95 CALM      29.84S FOG
$$
ABBREVIATIONS USED IN REMARKS
   TC - TEMPERATURES IN CELSIUS
  WCI - WIND CHILL INDEX
   HX - HEAT INDEX
  VSB - VISIBILITY
$$


USA.gov is the U.S. government's official web portal to all federal, state and local government web resources and services.